Flag for China Weather past 2 weeks in Taiyuan, Shanxi, China

54 °F


Feels Like: 54 °F
Forecast: 44 / 59 °F
Wind: 1 mph from Southeast

Location: Taiyuan Airport

Current Time: Oct 7, 2015 at 8:30:56 AM

Latest Report: Oct 7, 2015 at 8:00 AM

Visibility: 1 mi

Pressure: 30.12 "Hg (27.40 "Hg at 790m altitude)

Humidity: 94%

Dew point: 52 °F

Location of TaiyuanLocation

Historic Weather in Taiyuan — Graph


Taiyuan temperature yesterday

Maximum temperature yesterday: 75 °F (at 2:00 PM)
Minimum temperature yesterday: 46 °F (at 6:30 AM)
Average temperature yesterday: 61 °F

Past Weeks' High & Low Weather Summary

High81 °F (Sep 27, 3:30 PM)94% (Sep 22, 11:00 PM)30.33 "Hg (Sep 22, 11:00 PM)
Low32 °F (Sep 26, 7:00 AM)21% (Oct 1, 3:00 PM)29.83 "Hg (Sep 24, 2:30 PM)
Average60 °F64%30.09 "Hg
* Reported Sep 22 7:00 AM — Oct 7 7:30 AM, Taiyuan, Weather by CustomWeather, © 2015

Note: Actual official high and low records may vary slightly from our data, if they occured in-between our weather recording intervals... More about our weather records


Taiyuan weather history for previous 24 hours

Time TempWeatherWind HumidityBarometerVisibility
7:30 AM
Wed, Oct 7
52 °FFog.1 mph88%30.12 "Hg1 mi
7:00 AM50 °FFog.1 mph94%30.09 "Hg1 mi
6:30 AM50 °FFog.1 mph94%30.09 "Hg1 mi
6:00 AM50 °FFog.1 mph94%30.09 "Hg1 mi
5:30 AM50 °FFog.No wind94%30.09 "Hg1 mi
5:00 AM54 °FFog.No wind88%30.09 "Hg1 mi
4:30 AM55 °FFog.1 mph88%30.09 "Hg1 mi
4:00 AM55 °FFog.3 mph88%30.07 "Hg1 mi
3:30 AM55 °FFog.6 mph94%30.07 "Hg1 mi
3:00 AM55 °FFog.6 mph94%30.09 "Hg1 mi
2:30 AM55 °FFog.1 mph94%30.09 "Hg1 mi
2:00 AM57 °FFog.1 mph88%30.09 "Hg1 mi
1:30 AM57 °FFog.1 mph88%30.09 "Hg1 mi
1:00 AM57 °FFog.1 mph88%30.09 "Hg1 mi
12:30 AM57 °FFog.3 mph88%30.09 "Hg1 mi
12:00 AM57 °FFog.6 mph88%30.09 "Hg1 mi
11:30 PM
Tue, Oct 6
57 °FLight rain. Fog.3 mph88%30.12 "Hg1 mi
11:00 PM59 °FFog.6 mph82%30.09 "Hg1 mi
10:30 PM59 °FFog.6 mph82%30.12 "Hg1 mi
10:00 PM59 °FFog.6 mph82%30.09 "Hg1 mi
9:30 PM61 °FHaze.3 mph72%30.09 "Hg1 mi
9:00 PM63 °FHaze.8 mph59%30.09 "Hg1 mi
8:30 PM64 °FHaze.6 mph56%30.07 "Hg1 mi
8:00 PM63 °FHaze.3 mph59%30.07 "Hg2 mi
7:30 PM64 °FHaze.3 mph52%30.04 "Hg2 mi
7:00 PM66 °FHaze.6 mph49%30.04 "Hg3 mi
6:30 PM66 °FClear.1 mph52%30.04 "Hg4 mi
6:00 PM66 °FClear.3 mph52%30.01 "Hg4 mi
5:30 PM66 °FClear.1 mph52%30.01 "Hg4 mi
5:00 PM70 °FClear.1 mph43%30.01 "Hg4 mi
4:30 PM72 °FHaze.1 mph36%30.01 "Hg3 mi
4:00 PM73 °FClear.3 mph33%30.01 "Hg4 mi
3:30 PM73 °FClear.1 mph31%30.01 "Hg5 mi
3:00 PM73 °FClear.1 mph33%30.01 "Hg5 mi
2:30 PM75 °FClear.3 mph29%30.04 "Hg5 mi
2:00 PM75 °FClear.3 mph27%30.04 "Hg5 mi
1:30 PM73 °FClear.3 mph31%30.04 "Hg4 mi
1:00 PM73 °FClear.3 mph33%30.07 "Hg4 mi
12:30 PM72 °FHaze.3 mph36%30.09 "Hg3 mi
12:00 PM70 °FHaze.1 mph40%30.09 "Hg3 mi
11:30 AM68 °FHaze.3 mph43%30.12 "Hg3 mi
11:00 AM66 °FHaze.3 mph43%30.12 "Hg3 mi
10:30 AM64 °FHaze.6 mph46%30.15 "Hg3 mi
10:00 AM63 °FHaze.6 mph49%30.15 "Hg3 mi
9:30 AM61 °FHaze.6 mph52%30.15 "Hg3 mi
9:00 AM59 °FHaze.3 mph59%30.15 "Hg3 mi
8:30 AM55 °FHaze.1 mph72%30.15 "Hg2 mi
8:00 AM52 °FFog.1 mph82%30.15 "Hg2 mi
Weather by CustomWeather, © 2015

See weather overviewHow to use our weather pages